Simultaneous Nadir Overpasses (SNOs) Predictions

Prediction of SNOs between NOAA-19 and METOP-C Satellite Orbit:

Table of predicted SNOs for the next 14.0 days since TLE Epoch: 6/5/2020
Index Date (NOAA-19) Time (NOAA-19) Lat,Lon (NOAA-19) SZA (NOAA-19 ) Date (METOP-C) Time (METOP-C) Lat,Lon (METOP-C) SZA (METOP-C ) Distance(km) Time Diff (sec)
1 06/16/2020 13:06:32 80.01, 5.84 57.40 06/16/2020 13:07:38 80.02, 5.88 57.43 1.34 66
2 06/16/2020 13:57:33 -80.02, 173.05 122.60 06/16/2020 13:58:21 -80.00, 172.95 122.61 2.73 48
3 06/16/2020 14:48:32 80.00, -19.48 57.40 06/16/2020 14:49:00 80.01, -19.59 57.41 2.48 28
4 06/16/2020 15:39:33 -80.00, 147.74 122.61 06/16/2020 15:39:42 -80.02, 147.79 122.59 1.81 9
5 06/16/2020 16:30:33 80.01, -45.11 57.40 06/16/2020 16:30:22 80.00, -45.05 57.39 1.61 11
6 06/16/2020 17:21:33 -79.99, 122.43 122.61 06/16/2020 17:21:04 -80.00, 122.32 122.61 2.74 29
7 06/16/2020 18:12:33 80.00, -70.42 57.40 06/16/2020 18:11:44 79.99, -70.51 57.37 1.98 49




NCC Satellite Simultaneous Nadir Overpasses (SNOs) Prediction Service
